Los Alamos, NM

8:58 PM MST on December 12, 2017 (GMT -0700)
Los Alamos

Weather History for KLAM - March, 2013

Change the Weather History Date:

Friday, March 8, 2013

  Actual Average Record
Temperature  
Mean Temperature 44 °F -  
Max Temperature 53 °F 50 °F 67 °F (1989)
Min Temperature 35 °F 26 °F 10 °F (1969)
Degree Days  
Heating Degree Days 21    
Moisture  
Dew Point 23 °F    
Average Humidity 53    
Maximum Humidity 100    
Minimum Humidity 22    
Precipitation  
Precipitation 0.05 in - - ()
Sea Level Pressure  
Sea Level Pressure 29.92 in    
Wind  
Wind Speed 6 mph (SSW)    
Max Wind Speed 21 mph    
Max Gust Speed 34 mph    
Visibility 10 miles    
Events Rain , Snow    
Averages and records for this station are not official NWS values.
T = Trace of Precipitation, MM = Missing Value Source: NWS Daily Summary

Daily Weather History Graph

Daily Weather History Graph

Search for Another Location

Airport or City:

Trip Planner

Search our weather history database for the weather conditions in past years. The results will help you decide how hot, cold, wet, or windy it might be!

Date:

Astronomy

Mar. 08, 2013 Rise Set
Actual Time 6:25 AM MST 6:06 PM MST
Civil Twilight 5:59 AM MST 6:32 PM MST
Nautical Twilight 5:30 AM MST 7:01 PM MST
Astronomical Twilight 5:00 AM MST 7:31 PM MST
Moon 4:06 AM MST (3/8) 3:09 PM MST (3/8)
Length of Visible Light 12h 32m
Length of Day
11h 41m
Waning Crescent, 11% of the Moon is Illuminated
Mar 8
Waning Crescent
Mar 11
New
Mar 19
First Quarter
Mar 27
Full
Apr 2
Last Quarter

Hourly Weather History & Observations

Time (MST) Temp. Windchill Dew Point Humidity Pressure Visibility Wind Dir Wind Speed Gust Speed Precip Events Conditions
12:15 AM 49.5 °F - 15.4 °F 26% 30.03 in 10.0 mi West 8.1 mph - N/A   Clear
12:35 AM 49.8 °F - 15.6 °F 26% 30.03 in 10.0 mi WSW 6.9 mph - N/A   Clear
12:55 AM 49.1 °F - 15.8 °F 27% 30.04 in 10.0 mi SE 4.6 mph - N/A   Clear
1:15 AM 49.5 °F - 15.8 °F 26% 30.04 in 10.0 mi NW 3.5 mph - N/A   Clear
1:35 AM 49.8 °F - 15.8 °F 26% 30.04 in 10.0 mi Calm Calm - N/A   Clear
1:55 AM 47.5 °F - 16.2 °F 29% 30.03 in 10.0 mi WNW 5.8 mph - N/A   Clear
2:15 AM 47.1 °F - 14.9 °F 28% 30.02 in 10.0 mi WNW 5.8 mph - N/A   Clear
2:35 AM 46.8 °F - 14.7 °F 28% 30.01 in 10.0 mi North 5.8 mph - N/A   Clear
2:55 AM 46.6 °F - 14.9 °F 28% 30.01 in 10.0 mi NW 4.6 mph - N/A   Clear
3:15 AM 45.3 °F 43.0 °F 14.9 °F 29% 29.99 in 10.0 mi North 4.6 mph - N/A   Clear
3:35 AM 46.0 °F 43.9 °F 15.1 °F 29% 29.99 in 10.0 mi WNW 4.6 mph - N/A   Clear
3:55 AM 46.4 °F - 14.2 °F 27% 30.00 in 10.0 mi Calm Calm - N/A   Clear
4:15 AM 45.9 °F 42.3 °F 13.5 °F 27% 30.00 in 10.0 mi West 6.9 mph - N/A   Clear
4:35 AM 47.5 °F - 12.4 °F 24% 30.00 in 10.0 mi West 4.6 mph - N/A   Clear
5:15 AM 46.0 °F 41.4 °F 12.0 °F 25% 30.01 in 10.0 mi West 9.2 mph - N/A   Clear
5:35 AM 44.8 °F - 12.7 °F 27% 30.01 in 10.0 mi Calm Calm - N/A   Clear
5:55 AM 43.2 °F - 12.9 °F 29% 30.01 in 10.0 mi Calm Calm - N/A   Clear
6:15 AM 41.2 °F 38.2 °F 13.5 °F 32% 30.02 in 10.0 mi South 4.6 mph - N/A   Scattered Clouds
6:35 AM 42.6 °F - 13.8 °F 31% 30.01 in 10.0 mi Calm Calm - N/A   Scattered Clouds
6:55 AM 43.9 °F 42.3 °F 13.8 °F 30% 30.00 in 10.0 mi ESE 3.5 mph - N/A   Clear
7:15 AM 42.6 °F - 14.5 °F 32% 30.00 in 10.0 mi Calm Calm - N/A   Clear
7:35 AM 43.2 °F - 14.9 °F 32% 30.00 in 10.0 mi Calm Calm - N/A   Clear
7:55 AM 44.1 °F - 15.6 °F 32% 30.01 in 10.0 mi Calm Calm - N/A   Clear
8:15 AM 44.1 °F - 15.1 °F 31% 30.01 in 10.0 mi Calm Calm - N/A   Clear
8:35 AM 45.5 °F - 15.1 °F 29% 30.01 in 10.0 mi Calm Calm - N/A   Clear
8:55 AM 46.9 °F - 14.9 °F 28% 30.01 in 10.0 mi Calm Calm - N/A   Clear
9:15 AM 48.7 °F - 14.9 °F 26% 29.99 in 10.0 mi ENE 4.6 mph - N/A   Clear
9:35 AM 49.6 °F - 14.9 °F 25% 29.98 in 10.0 mi ENE 5.8 mph - N/A   Clear
9:55 AM 50.7 °F - 14.7 °F 24% 29.97 in 10.0 mi East 4.6 mph - N/A   Clear
10:15 AM 50.7 °F - 15.1 °F 24% 29.98 in 10.0 mi East 5.8 mph - N/A   Clear
10:35 AM 52.0 °F - 14.0 °F 22% 29.97 in 10.0 mi SSE 5.8 mph - N/A   Mostly Cloudy
10:55 AM 53.4 °F - 15.3 °F 22% 29.96 in 10.0 mi SSW 15.0 mph 28.8 mph N/A   Overcast
11:15 AM 51.8 °F - 15.3 °F 23% 29.96 in 10.0 mi South 16.1 mph 25.3 mph N/A   Overcast
11:35 AM 52.5 °F - 14.9 °F 23% 29.95 in 10.0 mi South 19.6 mph 34.5 mph N/A   Scattered Clouds
11:55 AM 53.2 °F - 15.1 °F 22% 29.95 in 10.0 mi South 12.7 mph 25.3 mph N/A   Scattered Clouds
12:15 PM 53.1 °F - 16.2 °F 23% 29.93 in 10.0 mi South 10.4 mph 20.7 mph N/A   Scattered Clouds
12:35 PM 52.5 °F - 17.2 °F 25% 29.92 in 10.0 mi South 20.7 mph 25.3 mph N/A   Mostly Cloudy
12:55 PM 51.8 °F - 17.4 °F 26% 29.90 in 10.0 mi South 19.6 mph 23.0 mph N/A   Mostly Cloudy
1:15 PM 50.9 °F - 17.1 °F 26% 29.90 in 10.0 mi South 16.1 mph 23.0 mph N/A   Overcast
1:35 PM 50.2 °F - 18.7 °F 29% 29.88 in 10.0 mi South 5.8 mph 20.7 mph N/A   Mostly Cloudy
1:55 PM 51.4 °F - 16.7 °F 25% 29.87 in 10.0 mi SSW 11.5 mph 18.4 mph N/A   Mostly Cloudy
2:15 PM 50.9 °F - 18.3 °F 28% 29.87 in 10.0 mi SSW 20.7 mph 26.5 mph N/A   Overcast
2:35 PM 48.2 °F - 25.2 °F 41% 29.90 in 10.0 mi South 13.8 mph 25.3 mph N/A   Overcast
2:55 PM 43.9 °F 37.9 °F 31.8 °F 63% 29.91 in 7.0 mi SW 11.5 mph 26.5 mph N/A   Drizzle
3:15 PM 41.5 °F 34.6 °F 33.4 °F 73% 29.91 in 7.0 mi SSW 12.7 mph 19.6 mph N/A Rain Light Rain
3:35 PM 42.3 °F 35.5 °F 33.6 °F 71% 29.90 in 10.0 mi South 12.7 mph 19.6 mph N/A   Drizzle
3:55 PM 40.5 °F 32.8 °F 36.5 °F 86% 29.89 in 10.0 mi South 13.8 mph 17.3 mph N/A   Light Drizzle
4:15 PM 39.7 °F 33.2 °F 37.6 °F 92% 29.86 in 10.0 mi SSE 10.4 mph - N/A Rain Light Rain
4:35 PM 40.1 °F 34.7 °F 37.6 °F 91% 29.85 in 10.0 mi South 8.1 mph - N/A   Mostly Cloudy
4:55 PM 39.9 °F 35.8 °F 37.0 °F 89% 29.84 in 10.0 mi SSE 5.8 mph - N/A   Mostly Cloudy
5:15 PM 39.7 °F 35.6 °F 37.0 °F 90% 29.84 in 10.0 mi South 5.8 mph - N/A   Mostly Cloudy
5:35 PM 40.1 °F 34.7 °F 35.8 °F 85% 29.84 in 10.0 mi South 8.1 mph - N/A Rain Rain
5:55 PM 39.6 °F 35.4 °F 37.6 °F 93% 29.84 in 7.0 mi WSW 5.8 mph - 0.01 in Rain Rain
6:15 PM 36.5 °F 28.2 °F 35.6 °F 97% 29.85 in - SSW 12.7 mph 18.4 mph 0.03 in   Unknown
6:35 PM 37.0 °F 31.0 °F 35.8 °F 95% 29.84 in - SSW 8.1 mph - 0.03 in   Unknown
6:55 PM 36.7 °F 32.9 °F 36.0 °F 97% 29.82 in - SW 4.6 mph - 0.03 in   Unknown
7:15 PM 37.6 °F 31.6 °F 36.5 °F 96% 29.82 in - WSW 8.1 mph - N/A   Unknown
7:35 PM 38.7 °F 36.3 °F 36.3 °F 91% 29.83 in - SSW 3.5 mph - N/A   Overcast
7:55 PM 37.8 °F 35.3 °F 37.2 °F 98% 29.83 in - SSW 3.5 mph - N/A   Unknown
8:15 PM 38.3 °F 33.9 °F 36.9 °F 95% 29.83 in - South 5.8 mph - N/A   Unknown
8:35 PM 37.2 °F 33.6 °F 36.7 °F 98% 29.81 in - South 4.6 mph - N/A   Unknown
8:55 PM 37.4 °F 32.1 °F 37.4 °F 100% 29.81 in - SSE 6.9 mph - N/A   Unknown
9:15 PM 37.4 °F 32.8 °F 37.4 °F 100% 29.81 in - South 5.8 mph - N/A   Unknown
9:35 PM 38.1 °F 32.3 °F 37.0 °F 96% 29.81 in - South 8.1 mph 17.3 mph N/A   Overcast
9:55 PM 37.8 °F 30.2 °F 36.5 °F 95% 29.80 in - South 11.5 mph - N/A   Unknown
10:15 PM 37.4 °F 32.1 °F 36.5 °F 97% 29.81 in - South 6.9 mph - N/A   Unknown
10:35 PM 35.4 °F 29.7 °F 34.3 °F 96% 29.81 in - SW 6.9 mph 24.2 mph 0.01 in   Overcast
10:55 PM 35.1 °F 30.1 °F 34.7 °F 99% 29.80 in 7.0 mi SW 5.8 mph - 0.01 in Snow Light Snow
11:15 PM 35.2 °F 29.5 °F 34.7 °F 98% 29.80 in 10.0 mi SSW 6.9 mph - N/A   Overcast
11:35 PM 35.6 °F 29.9 °F 34.7 °F 97% 29.78 in 10.0 mi South 6.9 mph - N/A   Mostly Cloudy
11:55 PM 35.6 °F 32.8 °F 33.8 °F 93% 29.79 in 10.0 mi SSW 3.5 mph - N/A   Scattered Clouds